Overview Statistics Trail Chart Weather Telemetry Raw packets
 

This is the latest recevied weather packets stored in our database for station/object K7KAR-2. If no packets are shown the sender has not sent any weather packets the latest 10 day(s).

<< 91 92 93 94 95 96 97 >>
Time Temp. Humidity Pressure Rain* Wind** Luminosity Snow
1787937497 22.78° C 48% 1015.7 hPa 0 mm - 190 W/m² -
1787937193 22.78° C 50% 1015.6 hPa 0 mm - 173 W/m² -
1787936887 22.78° C 50% 1015.8 hPa 0 mm - 191 W/m² -
1787936586 22.78° C 50% 1015.7 hPa 0 mm - 173 W/m² -
1787936285 22.22° C 51% 1015.5 hPa 0 mm - 156 W/m² -
1787935981 22.22° C 51% 1015.6 hPa 0 mm - 135 W/m² -
1787935676 22.22° C 51% 1015.7 hPa 0 mm - 110 W/m² -
1787935373 22.22° C 52% 1015 hPa 0 mm - 99 W/m² -
1787935069 22.22° C 53% 1015.1 hPa 0 mm - 102 W/m² -
1787934764 22.22° C 52% 1015.3 hPa 0 mm - 123 W/m² -
1787934463 22.78° C 50% 1015.1 hPa 0 mm - 164 W/m² -
1787934158 22.22° C 52% 1015 hPa 0 mm - 195 W/m² -
1787933856 22.22° C 52% 1015 hPa 0 mm - 238 W/m² -
1787933551 21.67° C 52% 1015 hPa 0 mm - 261 W/m² -
1787933246 21.67° C 52% 1015 hPa 0 mm - 234 W/m² -
1787932947 21.67° C 54% 1015.1 hPa 0 mm - 224 W/m² -
1787932645 21.11° C 55% 1014.9 hPa 0 mm - 192 W/m² -
1787932339 21.11° C 54% 1015 hPa 0 mm - 170 W/m² -
1787932034 21.11° C 56% 1015.1 hPa 0 mm - 158 W/m² -
1787931733 20.56° C 54% 1014.9 hPa 0 mm - 174 W/m² -
1787931432 20.56° C 59% 1015.1 hPa 0 mm - 177 W/m² -
1787931128 20° C 60% 1015 hPa 0 mm - 173 W/m² -
1787930826 19.44° C 61% 1015 hPa 0 mm - 168 W/m² -
1787930521 19.44° C 62% 1015.1 hPa 0 mm - 162 W/m² -
1787930216 18.89° C 62% 1015 hPa 0 mm - 142 W/m² -

* Rain latest hour (hover to see other rain measurements)
** Current wind speed in m/s (hover to see current wind gust speed)